This is the latest recevied weather packets stored in our database for station/object KR4CWL-13. If no packets are shown the sender has not sent any weather packets the latest 1 day(s).
| Time | Temp. | Humidity | Pressure | Rain* | Wind** | Luminosity | Snow |
|---|---|---|---|---|---|---|---|
| 1778037338 | 18.89° C | 71% | 1008.1 hPa | 0 mm | 1.34 m/s, 203° | - | - |
| 1778036738 | 18.89° C | 71% | 1008.1 hPa | 0 mm | 2.24 m/s, 203° | - | - |
| 1778036138 | 19.44° C | 70% | 1008.1 hPa | 0 mm | 1.79 m/s, 45° | - | - |
| 1778035538 | 19.44° C | 68% | 1008.1 hPa | 0 mm | 1.34 m/s, 203° | - | - |
| 1778034938 | 19.44° C | 66% | 1008.5 hPa | 0 mm | 2.68 m/s, 203° | - | - |
| 1778034338 | 19.44° C | 63% | 1008.1 hPa | 0 mm | 1.79 m/s, 225° | - | - |
| 1778033738 | 20° C | 60% | 1008.1 hPa | 0 mm | 1.34 m/s, 158° | - | - |
| 1778033138 | 20° C | 58% | 1008.1 hPa | 0 mm | 1.34 m/s, 203° | - | - |
| 1778032538 | 20° C | 57% | 1007.8 hPa | 0 mm | 0 m/s | - | - |
| 1778031938 | 20° C | 56% | 1007.8 hPa | 0 mm | 0 m/s | - | - |
| 1778031338 | 20.56° C | 55% | 1007.4 hPa | 0 mm | 0.89 m/s, 225° | - | - |
| 1778030738 | 20.56° C | 54% | 1007.1 hPa | 0 mm | 0 m/s | - | - |
| 1778030138 | 21.11° C | 53% | 1007.1 hPa | 0 mm | 0.45 m/s, 135° | - | - |
| 1778029538 | 21.11° C | 52% | 1007.1 hPa | 0 mm | 1.34 m/s, 45° | - | - |
| 1778028908 | 21.67° C | 51% | 1007.1 hPa | 0 mm | 0.89 m/s, 45° | - | - |
| 1778028253 | 21.67° C | 50% | 1007.1 hPa | 0 mm | 0.89 m/s, 203° | - | - |
| 1778027653 | 22.22° C | 49% | 1007.1 hPa | 0 mm | 0.89 m/s, 45° | - | - |
| 1778027053 | 22.22° C | 49% | 1006.8 hPa | 0 mm | 0.89 m/s, 203° | - | - |
| 1778026453 | 22.78° C | 48% | 1006.8 hPa | 0 mm | 0.89 m/s, 203° | - | - |
| 1778025853 | 22.78° C | 47% | 1006.8 hPa | 0 mm | 1.79 m/s, 158° | - | - |
| 1778025253 | 23.33° C | 47% | 1006.8 hPa | 0 mm | 1.79 m/s, 45° | - | - |
| 1778024653 | 23.89° C | 46% | 1006.8 hPa | 0 mm | 0.89 m/s, 45° | - | - |
| 1778024053 | 23.89° C | 45% | 1006.4 hPa | 0 mm | 1.79 m/s, 203° | - | - |
| 1778023452 | 23.89° C | 44% | 1006.4 hPa | 0 mm | 1.79 m/s, 203° | - | - |
| 1778022852 | 24.44° C | 43% | 1006.4 hPa | 0 mm | 2.24 m/s, 158° | - | - |
* Rain since midnight (hover to see other rain measurements)
** Current wind speed in m/s (hover to see current wind gust speed)